Flag for U.S.A. Weather past 2 weeks in San Luis Obispo, California, U.S.A.

Now
45 °F

Clear.


Feels Like: 44 °F
Forecast: 49 / 75 °F
Wind: 3 mph from Southeast

Location: San Luis Obispo County-Mc Chesney Field

Current Time: Mar 30, 2015 at 6:03:07 AM

Latest Report: Mar 30, 2015 at 4:56 AM


Visibility: 9 mi

Pressure: 29.99 "Hg

Humidity: 86%

Dew point: 41 °F

Location of San Luis ObispoLocation

Historic Weather in San Luis Obispo — Graph

°F

San Luis Obispo temperature yesterday

Maximum temperature yesterday: 78 °F (at 10:56 AM)
Minimum temperature yesterday: 51 °F (at 11:56 PM)
Average temperature yesterday: 63 °F

Past Weeks' High & Low Weather Summary

 TemperatureHumidityPressure
High88 °F (Mar 26, 11:56 AM)100% (Mar 28, 1:04 AM)30.25 "Hg (Mar 28, 1:04 AM)
Low45 °F (Mar 20, 5:56 AM)18% (Mar 26, 11:56 AM)29.90 "Hg (Mar 16, 4:56 PM)
Average61 °F67%30.07 "Hg
* Reported Mar 15 4:56 AM — Mar 30 4:56 AM, San Luis Obispo, Weather by CustomWeather, © 2015

Note: Actual official high and low records may vary slightly from our data, if they occured in-between our weather recording intervals... More about our weather records

Advertising

San Luis Obispo weather history for previous 24 hours

 ConditionsComfort  
Time TempWeatherWind HumidityBarometerVisibility
4:56 AM
Mon, Mar 30
45 °FClear.3 mph86%29.99 "Hg9 mi
3:56 AM47 °FClear.No wind86%30.00 "Hg9 mi
2:56 AM48 °FClear.3 mph86%30.00 "Hg9 mi
1:56 AM48 °FClear.3 mph86%30.01 "Hg10 mi
12:56 AM50 °FClear.No wind80%30.01 "Hg10 mi
11:56 PM
Sun, Mar 29
51 °FClear.No wind83%30.02 "Hg10 mi
10:56 PM52 °FClear.No wind80%30.01 "Hg10 mi
9:56 PM54 °FClear.No wind80%30.01 "Hg9 mi
8:56 PM56 °FClear.No wind77%30.01 "Hg9 mi
7:56 PM57 °FSunny.7 mph74%29.99 "Hg10 mi
6:56 PM61 °FSunny.14 mph65%29.98 "Hg10 mi
5:56 PM66 °FSunny.12 mph50%29.98 "Hg10 mi
4:56 PM73 °FSunny.20 mph36%29.96 "Hg10 mi
3:56 PM78 °FSunny.18 mph27%29.97 "Hg10 mi
2:56 PM76 °FSunny.15 mph33%29.99 "Hg10 mi
1:56 PM76 °FSunny.18 mph36%30.00 "Hg10 mi
12:56 PM77 °FSunny.17 mph39%30.01 "Hg10 mi
11:56 AM75 °FSunny.15 mph42%30.03 "Hg10 mi
10:56 AM78 °FSunny.6 mph30%30.04 "Hg10 mi
9:56 AM70 °FSunny.6 mph49%30.05 "Hg10 mi
8:56 AM61 °FSunny.7 mph70%30.05 "Hg9 mi
7:56 AM55 °FSunny.No wind80%30.05 "Hg7 mi
6:56 AM54 °FClear.3 mph80%30.04 "Hg9 mi
Weather by CustomWeather, © 2015

See weather overviewHow to use our weather pages